BEIDOU IGSO-7 (C16)

Last updated on Dec. 11, 2019, 4:29 a.m. UTC

1 43539U 18057A   19344.75311841 -.00000023  00000-0  00000+0 0  9991
2 43539  55.0345 183.9876 0024744 196.7767  83.0021  1.00274991  5286
UTC
Height (km)
Latitude
Longitude
Inclination
Orbital Period
UTC large
Height (km)
Speed (km/s)
/
Latitude / Longitude
Inclination (degrees)
Orbital Period (minutes)
Azimuth
Elevation
Range (km)
Doppler Factor
iOS Compass Heading
iOS Angle

Next 30 passes for location: Hong Kong

Rise time Rise Azimuth (degrees) Set time Set Azimuth (degrees) Duration Max altitude (degrees)

No matching passes for this satellites